Weather History for Gwinn, MI

Change the Weather History Date:

Saturday, February 9, 2013

  Actual Average (KESC) Record (KESC)
Temperature  
Mean Temperature 8 °F -  
Max Temperature 24 °F 24 °F 43 °F (1961)
Min Temperature -9 °F 3 °F -16 °F (1982)
Degree Days  
Heating Degree Days 58    
Moisture  
Dew Point 2 °F    
Average Humidity 82    
Maximum Humidity 93    
Minimum Humidity 74    
Precipitation  
Precipitation 0.00 in - - ()
Sea Level Pressure  
Sea Level Pressure 30.20 in    
Wind  
Wind Speed 4 mph (SSW)    
Max Wind Speed 22 mph    
Max Gust Speed 28 mph    
Visibility 10 miles    
Events      
Averages and records for this station are not official NWS values.
T = Trace of Precipitation, MM = Missing Value Source: NWS Daily Summary

Daily Weather History Graph

Daily Weather History Graph

Search for Another Location

Airport:

Trip Planner

Search our weather history database for the weather conditions in past years. The results will help you decide how hot, cold, wet, or windy it might be!

Date:

Astronomy

Feb. 09, 2013 Rise Set
Actual Time 8:01 AM EST 6:06 PM EST
Civil Twilight 7:30 AM EST 6:38 PM EST
Nautical Twilight 6:54 AM EST 7:13 PM EST
Astronomical Twilight 6:19 AM EST 7:48 PM EST
Moon 7:12 AM EST (2/9) 5:50 PM EST (2/9)
Length of Visible Light 11h 07m
Length of Day
10h 05m
Waning Crescent, 0% of the Moon is Illuminated
Feb 9
Waning Crescent
Feb 10
New
Feb 17
First Quarter
Feb 25
Full
Mar 4
Last Quarter

Hourly Weather History & Observations

Time (EST) Temp. Windchill Dew Point Humidity Pressure Visibility Wind Dir Wind Speed Gust Speed Precip Events Conditions
12:17 AM -5.8 °F - -9.9 °F 82% 30.32 in 10.0 mi Calm Calm - N/A   Scattered Clouds
12:36 AM -5.3 °F - -9.4 °F 82% 30.32 in 10.0 mi Calm Calm - N/A   Clear
12:57 AM -5.4 °F - -9.9 °F 81% 30.32 in 10.0 mi Calm Calm - N/A   Clear
1:17 AM -3.5 °F - -7.8 °F 82% 30.31 in 10.0 mi Calm Calm - N/A   Clear
1:36 AM -2.6 °F - -6.7 °F 82% 30.31 in 10.0 mi Calm Calm - N/A   Clear
1:57 AM -5.4 °F - -9.4 °F 83% 30.30 in 10.0 mi Calm Calm - N/A   Clear
2:17 AM -6.7 °F - -11.4 °F 80% 30.29 in 10.0 mi Calm Calm - N/A   Clear
2:37 AM -9.2 °F - -14.3 °F 79% 30.30 in 10.0 mi Calm Calm - N/A   Clear
2:57 AM -8.3 °F - -13.0 °F 80% 30.31 in 10.0 mi Calm Calm - N/A   Clear
3:17 AM -9.0 °F - -14.1 °F 79% 30.31 in 10.0 mi Calm Calm - N/A   Clear
3:37 AM -7.1 °F - -11.6 °F 81% 30.30 in 10.0 mi Calm Calm - N/A   Clear
3:57 AM -8.9 °F - -13.5 °F 80% 30.30 in 10.0 mi Calm Calm - N/A   Clear
4:17 AM -8.1 °F - -13.0 °F 79% 30.30 in 10.0 mi Calm Calm - N/A   Clear
4:36 AM -5.1 °F - -9.0 °F 83% 30.30 in 10.0 mi Calm Calm - N/A   Clear
4:57 AM -7.1 °F - -11.4 °F 81% 30.29 in 10.0 mi Calm Calm - N/A   Scattered Clouds
5:17 AM -8.1 °F - -13.0 °F 79% 30.29 in 10.0 mi Calm Calm - N/A   Scattered Clouds
5:36 AM -8.7 °F - -13.2 °F 81% 30.28 in 10.0 mi Calm Calm - N/A   Clear
5:57 AM -7.4 °F - -11.7 °F 81% 30.27 in 10.0 mi Calm Calm - N/A   Clear
6:50 AM -5.8 °F -19.9 °F -11.2 °F 77% 30.26 in 10.0 mi SSW 6.9 mph - N/A   Clear
7:50 AM -0.4 °F -12.0 °F -4.0 °F 85% 30.25 in 10.0 mi SSW 5.8 mph - N/A   Clear
8:55 AM 5.0 °F -5.6 °F 1.4 °F 85% 30.23 in 10.0 mi South 5.8 mph - N/A   Clear
10:50 AM 14.0 °F -0.2 °F 10.4 °F 86% 30.21 in 10.0 mi SSW 12.7 mph 17.3 mph N/A   Overcast
11:50 AM 17.6 °F 2.7 °F 15.8 °F 93% 30.20 in 10.0 mi SSW 16.1 mph 19.6 mph N/A   Overcast
12:50 PM 19.4 °F 4.5 °F 17.6 °F 93% 30.18 in 10.0 mi SSW 17.3 mph 23.0 mph N/A   Overcast
1:50 PM 24.8 °F 10.7 °F 17.6 °F 74% 30.14 in 10.0 mi SSW 19.6 mph - N/A   Mostly Cloudy
3:50 PM 24.8 °F 10.3 °F 17.6 °F 74% 30.10 in 10.0 mi SSW 20.7 mph 27.6 mph N/A   Scattered Clouds
4:50 PM 24.8 °F 11.1 °F 17.6 °F 74% 30.09 in 10.0 mi South 18.4 mph 27.6 mph N/A   Scattered Clouds
5:55 PM 24.8 °F 10.0 °F 19.4 °F 80% 30.08 in 10.0 mi SSW 21.9 mph - N/A   Overcast
6:55 PM 23.0 °F 8.7 °F 19.4 °F 86% 30.07 in 10.0 mi SSW 18.4 mph 26.5 mph N/A   Overcast
7:55 PM 23.0 °F 9.2 °F 19.4 °F 86% 30.07 in 10.0 mi SSW 17.3 mph - N/A   Overcast
8:55 PM 23.0 °F 10.1 °F 17.6 °F 80% 30.06 in 10.0 mi SSW 15.0 mph - N/A   Overcast
9:55 PM 23.0 °F 9.6 °F 19.4 °F 86% 30.06 in 10.0 mi SW 16.1 mph - N/A   Overcast
10:17 PM 22.6 °F 11.3 °F 18.9 °F 85% 30.05 in 10.0 mi SW 11.5 mph - N/A   Overcast
10:36 PM 22.6 °F 11.3 °F 19.0 °F 86% 30.06 in 10.0 mi SW 11.5 mph - N/A   Overcast
10:57 PM 22.6 °F 10.7 °F 19.0 °F 86% 30.05 in 10.0 mi SSW 12.7 mph - N/A   Overcast
11:17 PM 22.6 °F 10.7 °F 19.2 °F 87% 30.05 in 10.0 mi SW 12.7 mph - N/A   Overcast
11:36 PM 22.6 °F 10.7 °F 19.2 °F 87% 30.05 in 10.0 mi SW 12.7 mph - N/A   Overcast
11:57 PM 22.5 °F 11.1 °F 19.2 °F 87% 30.04 in 7.0 mi SW 11.5 mph - N/A   Overcast